Temp
-11 -11 -10 -10 -11 -10 -11 -10 -10 -10 -10 -11 -11 -10 -10 -11 -11 -11 -12 -12 -11 -11 -11 -11 -11 -11 -11 -11 -11 -11 -10 -10 -9 -9 -10 -10 -11 -11 -11 -11 -11 -10 -11 -11 -11
-11 -11 -11 -11 -11 -11 -10 -10 -10 -10 -10 -10 -10 -10 -11 -11 -10 -11 -12 -12 -12 -11 -11 -11 -11 -11 -11 -11 -11 -11 -10 -10 -9 -10 -10 -10 -11 -10 -10 -11 -11 -11 -11 -11 -12
-10 -10 -10 -10 -10 -10 -11 -11 -10 -11 -11 -10 -10 -10 -10 -10 -10 -11 -12 -12 -12 -11 -12 -12 -12 -11 -11 -11 -11 -10 -9 -10 -10 -11 -11 -11 -11 -11 -10 -10 -11 -11 -11 -12 -12
-10 -10 -10 -10 -10 -10 -10 -10 -11 -11 -10 -10 -10 -10 -10 -10 -10 -10 -11 -12 -12 -12 -12 -12 -12 -12 -11 -10 -11 -11 -10 -11 -11 -11 -11 -11 -10 -10 -11 -11 -10 -11 -11 -11 -12
-10 -10 -10 -10 -10 -10 -10 -10 -10 -10 -10 -10 -10 -10 -10 -10 -9 -10 -10 -11 -12 -12 -12 -12 -12 -13 -11 -11 -12 -11 -11 -11 -11 -11 -11 -11 -10 -10 -10 -11 -12 -12 -11 -12 -12
-10 -10 -10 -10 -10 -10 -10 -10 -10 -10 -10 -10 -10 -10 -10 -9 -10 -11 -11 -11 -11 -12 -13 -13 -13 -13 -12 -11 -11 -11 -10 -11 -11 -11 -11 -11 -11 -10 -10 -12 -12 -12 -12 -12 -11
-10 -10 -10 -9 -9 -9 -9 -9 -9 -9 -9 -9 -10 -10 -9 -9 -10 -11 -11 -11 -11 -12 -12 -13 -13 -13 -12 -11 -11 -11 -11 -11 -11 -11 -10 -11 -9 -11 -11 -11 -12 -11 -11 -11 -10
-10 -10 -9 -9 -9 -9 -9 -9 -9 -9 -9 -9 -9 -9 -9 -10 -10 -11 -11 -11 -11 -11 -12 -13 -13 -13 -12 -11 -12 -11 -11 -11 -11 -11 -10 -12 -8 -11 -11 -11 -12 -11 -11 -9 -10
-10 -9 -9 -9 -9 -9 -9 -9 -9 -9 -9 -9 -9 -9 -8 -9 -10 -11 -11 -11 -12 -11 -11 -12 -12 -12 -12 -12 -12 -11 -11 -10 -10 -10 -12 -11 -10 -11 -12 -12 -11 -11 -10 -10 -10
-9 -9 -9 -9 -9 -9 -8 -8 -8 -8 -9 -9 -8 -9 -9 -9 -9 -10 -11 -11 -12 -12 -12 -12 -12 -12 -11 -11 -9 -8 -9 -9 -10 -10 -12 -11 -10 -11 -13 -12 -12 -11 -10 -10 -10
-9 -9 -9 -9 -9 -8 -8 -8 -8 -8 -8 -8 -9 -8 -9 -9 -9 -9 -11 -11 -12 -12 -12 -12 -12 -10 -10 -10 -11 -11 -11 -11 -11 -11 -12 -11 -11 -11 -13 -13 -11 -11 -10 -10 -10
-10 -9 -9 -9 -9 -9 -9 -9 -10 -10 -9 -10 -9 -9 -10 -10 -9 -10 -10 -11 -12 -11 -12 -13 -11 -9 -11 -12 -12 -12 -11 -10 -11 -12 -12 -12 -11 -12 -13 -12 -11 -10 -10 -10 -10
-10 -10 -11 -12 -13 -14 -14 -16 -16 -16 -12 -13 -15 -13 -12 -11 -9 -11 -11 -11 -11 -12 -12 -12 -8 -12 -12 -12 -12 -11 -11 -11 -11 -12 -13 -12 -11 -12 -13 -11 -11 -10 -10 -11 -11
-12 -14 -16 -18 -19 -20 -20 -20 -19 -19 -18 -18 -18 -18 -16 -14 -12 -12 -12 -12 -11 -12 -12 -12 -11 -12 -12 -12 -12 -11 -11 -12 -13 -13 -12 -13 -10 -11 -11 -11 -10 -10 -10 -11 -11
-17 -19 -20 -21 -21 -21 -21 -21 -21 -21 -21 -20 -21 -20 -19 -18 -16 -14 -15 -14 -13 -12 -12 -10 -11 -11 -12 -11 -12 -11 -13 -13 -13 -13 -12 -12 -11 -8 -11 -10 -10 -10 -11 -11 -11
-20 -21 -22 -22 -23 -22 -23 -23 -23 -23 -22 -23 -22 -22 -22 -21 -20 -18 -17 -16 -15 -15 -13 -12 -12 -13 -11 -12 -12 -13 -13 -12 -12 -12 -12 -10 -12 -9 -10 -11 -11 -11 -12 -11 -11
-22 -23 -23 -23 -23 -24 -24 -24 -24 -23 -24 -24 -24 -24 -24 -23 -22 -21 -19 -18 -16 -15 -14 -13 -11 -11 -12 -12 -12 -13 -13 -11 -12 -13 -9 -10 -11 -9 -10 -11 -10 -11 -11 -11 -11
-23 -24 -24 -25 -24 -25 -25 -25 -25 -25 -25 -25 -25 -25 -24 -24 -22 -22 -21 -19 -17 -16 -16 -13 -12 -11 -11 -11 -11 -12 -12 -11 -11 -11 -10 -11 -9 -8 -10 -11 -11 -11 -10 -11 -11
-24 -25 -25 -26 -26 -26 -26 -26 -26 -26 -26 -25 -25 -25 -25 -23 -22 -22 -22 -20 -18 -18 -16 -14 -12 -12 -12 -12 -12 -12 -11 -12 -12 -11 -11 -10 -9 -9 -10 -11 -10 -11 -11 -11 -12
-25 -25 -26 -27 -26 -27 -26 -26 -26 -26 -26 -26 -25 -25 -24 -24 -22 -22 -22 -22 -18 -18 -16 -14 -12 -13 -13 -13 -12 -11 -13 -12 -11 -10 -10 -9 -9 -9 -10 -10 -10 -10 -11 -12 -11
-25 -26 -26 -27 -26 -27 -26 -26 -26 -26 -26 -26 -26 -25 -24 -24 -23 -22 -21 -21 -21 -18 -15 -15 -13 -13 -14 -11 -11 -12 -11 -11 -12 -11 -10 -9 -8 -10 -10 -10 -11 -11 -11 -11 -11
-25 -26 -27 -27 -26 -26 -26 -26 -26 -26 -26 -26 -26 -25 -25 -25 -24 -23 -22 -20 -20 -18 -16 -16 -13 -14 -12 -12 -12 -12 -12 -11 -11 -10 -10 -10 -9 -10 -11 -11 -11 -11 -11 -11 -11
-25 -26 -27 -27 -27 -27 -27 -26 -26 -26 -25 -26 -26 -26 -26 -25 -24 -23 -22 -21 -20 -19 -17 -16 -14 -15 -14 -13 -13 -11 -11 -11 -12 -11 -10 -10 -10 -11 -11 -11 -11 -11 -11 -11 -10
-25 -26 -27 -27 -27 -27 -26 -26 -26 -26 -25 -26 -26 -26 -25 -25 -24 -23 -22 -21 -20 -20 -19 -16 -15 -13 -14 -12 -12 -11 -11 -11 -11 -10 -10 -9 -11 -11 -11 -11 -12 -12 -11 -11 -11
-25 -25 -26 -27 -27 -27 -26 -26 -26 -26 -26 -26 -26 -26 -26 -25 -25 -24 -22 -21 -20 -20 -19 -16 -15 -13 -13 -13 -12 -11 -11 -10 -10 -10 -10 -10 -11 -11 -12 -12 -11 -12 -12 -11 -11
-24 -25 -25 -26 -26 -26 -26 -26 -26 -26 -26 -26 -26 -26 -26 -25 -25 -24 -23 -22 -20 -20 -20 -17 -16 -13 -13 -13 -12 -11 -11 -11 -10 -11 -10 -10 -11 -11 -12 -12 -12 -12 -12 -12 -11
-24 -25 -25 -25 -25 -26 -26 -26 -26 -26 -26 -26 -26 -26 -25 -25 -25 -24 -24 -22 -21 -20 -20 -19 -16 -14 -15 -13 -13 -12 -11 -10 -10 -11 -10 -11 -12 -12 -11 -12 -12 -12 -12 -12 -11
Height
5795 5796 5797 5797 5797 5798 5799 5801 5802 5805 5807 5810 5814 5817 5821 5825 5828 5831 5838 5840 5835 5838 5839 5844 5848 5851 5851 5854 5855 5856 5854 5860 5866 5867 5869 5867 5865 5863 5862 5860 5859 5861 5858 5853 5853
5789 5789 5790 5790 5791 5792 5793 5793 5794 5796 5798 5800 5803 5807 5810 5812 5815 5819 5831 5826 5825 5826 5829 5836 5839 5839 5843 5844 5845 5846 5847 5855 5861 5861 5861 5858 5858 5856 5856 5854 5857 5854 5853 5848 5846
5784 5783 5782 5782 5782 5783 5784 5786 5787 5788 5788 5791 5793 5797 5801 5802 5805 5810 5816 5817 5816 5817 5823 5825 5828 5831 5833 5835 5836 5838 5836 5850 5852 5854 5849 5850 5852 5848 5849 5850 5854 5849 5848 5846 5840
5778 5777 5776 5776 5775 5775 5775 5775 5777 5779 5780 5781 5782 5786 5790 5791 5793 5799 5805 5809 5811 5811 5812 5815 5816 5820 5824 5824 5830 5827 5831 5838 5845 5843 5838 5843 5842 5845 5839 5845 5847 5841 5837 5835 5834
5771 5769 5768 5766 5766 5766 5765 5765 5765 5766 5769 5771 5773 5776 5779 5781 5786 5788 5793 5798 5799 5802 5802 5803 5805 5809 5812 5817 5818 5814 5823 5828 5831 5831 5831 5832 5834 5834 5835 5841 5836 5830 5828 5825 5823
5762 5761 5759 5758 5757 5756 5755 5754 5754 5756 5756 5758 5759 5762 5765 5769 5776 5777 5778 5785 5787 5789 5790 5792 5795 5801 5801 5802 5805 5808 5809 5813 5815 5821 5825 5823 5826 5818 5833 5832 5824 5821 5818 5813 5812
5752 5749 5747 5745 5744 5743 5743 5742 5742 5743 5743 5744 5745 5746 5751 5759 5760 5767 5764 5771 5773 5777 5780 5782 5784 5786 5790 5792 5795 5797 5797 5799 5802 5814 5815 5818 5813 5815 5823 5820 5813 5810 5808 5803 5804
5738 5735 5733 5731 5730 5729 5727 5727 5727 5728 5728 5728 5731 5734 5738 5743 5746 5750 5753 5754 5757 5761 5766 5768 5772 5775 5776 5780 5784 5786 5788 5787 5798 5806 5807 5809 5803 5810 5817 5809 5804 5802 5798 5797 5797
5725 5721 5717 5713 5710 5708 5706 5705 5706 5707 5709 5710 5714 5717 5724 5725 5730 5734 5738 5742 5741 5745 5752 5754 5758 5762 5765 5768 5771 5772 5774 5781 5793 5794 5799 5797 5795 5804 5806 5800 5795 5796 5793 5795 5796
5710 5705 5700 5695 5691 5687 5684 5683 5683 5684 5685 5686 5692 5700 5705 5707 5711 5718 5722 5725 5730 5732 5737 5742 5744 5750 5754 5754 5755 5767 5771 5775 5778 5786 5790 5788 5789 5791 5798 5791 5789 5791 5792 5793 5794
5693 5686 5678 5671 5666 5662 5660 5658 5658 5659 5660 5662 5668 5672 5682 5683 5690 5696 5702 5707 5711 5719 5722 5727 5731 5738 5748 5752 5755 5759 5759 5763 5769 5775 5780 5782 5780 5783 5787 5784 5784 5786 5789 5789 5790
5671 5664 5656 5648 5642 5636 5633 5628 5625 5627 5635 5633 5638 5645 5652 5658 5668 5675 5679 5689 5696 5704 5711 5712 5718 5739 5744 5741 5744 5748 5750 5754 5761 5767 5770 5772 5770 5772 5777 5777 5778 5781 5784 5785 5785
5649 5641 5632 5622 5615 5609 5605 5600 5596 5594 5600 5615 5607 5613 5620 5626 5639 5652 5656 5666 5682 5689 5694 5701 5720 5733 5731 5733 5733 5737 5739 5749 5755 5759 5759 5758 5758 5759 5769 5770 5772 5776 5779 5780 5780
5627 5617 5609 5602 5596 5588 5585 5580 5578 5578 5577 5589 5584 5586 5589 5593 5610 5622 5632 5643 5658 5675 5684 5689 5710 5708 5715 5718 5724 5726 5734 5737 5742 5744 5748 5749 5740 5747 5762 5764 5767 5771 5773 5774 5776
5608 5600 5593 5585 5582 5576 5571 5566 5563 5563 5566 5569 5557 5567 5571 5575 5580 5593 5605 5619 5637 5653 5664 5685 5690 5694 5703 5717 5722 5725 5723 5728 5732 5731 5737 5742 5736 5750 5755 5758 5764 5766 5767 5769 5770
5595 5587 5582 5575 5568 5563 5557 5553 5552 5554 5555 5553 5552 5556 5560 5559 5563 5580 5590 5599 5618 5631 5650 5666 5677 5686 5700 5705 5712 5715 5713 5716 5721 5727 5721 5736 5733 5748 5753 5755 5756 5760 5762 5764 5765
5583 5576 5569 5561 5556 5549 5544 5542 5542 5541 5546 5546 5545 5548 5551 5554 5553 5560 5569 5581 5598 5611 5632 5649 5662 5675 5683 5691 5698 5700 5702 5706 5711 5712 5719 5728 5731 5746 5747 5749 5752 5754 5756 5759 5760
5574 5566 5558 5549 5541 5536 5533 5531 5531 5533 5536 5536 5539 5542 5544 5548 5548 5551 5561 5570 5587 5600 5618 5635 5649 5662 5673 5681 5692 5698 5701 5701 5703 5709 5714 5729 5721 5740 5743 5742 5748 5749 5753 5755 5756
5567 5559 5550 5542 5535 5530 5525 5522 5523 5527 5528 5529 5533 5535 5538 5541 5544 5547 5555 5564 5576 5587 5600 5620 5638 5654 5666 5676 5684 5690 5685 5700 5703 5705 5711 5719 5723 5734 5738 5738 5742 5746 5750 5751 5753
5563 5554 5545 5537 5533 5529 5526 5522 5522 5523 5523 5525 5528 5529 5532 5536 5540 5543 5549 5556 5563 5574 5586 5606 5624 5640 5652 5662 5671 5678 5692 5692 5693 5698 5703 5714 5717 5728 5734 5736 5737 5743 5746 5747 5749
5559 5550 5542 5534 5530 5530 5528 5525 5524 5522 5520 5520 5521 5523 5527 5529 5533 5539 5544 5550 5554 5566 5582 5598 5611 5626 5636 5650 5660 5668 5673 5676 5687 5693 5698 5707 5715 5725 5728 5730 5734 5740 5742 5744 5748
5556 5546 5538 5533 5530 5529 5529 5527 5526 5523 5520 5517 5516 5519 5520 5525 5528 5534 5541 5543 5551 5559 5572 5586 5599 5614 5635 5644 5655 5664 5674 5681 5686 5691 5697 5703 5714 5720 5721 5725 5731 5736 5739 5742 5745
5556 5544 5535 5529 5528 5528 5528 5528 5526 5525 5522 5519 5516 5517 5519 5522 5527 5530 5535 5541 5546 5554 5563 5576 5588 5605 5618 5631 5644 5653 5663 5670 5675 5682 5689 5699 5710 5715 5718 5723 5730 5733 5736 5740 5741
5558 5548 5537 5531 5529 5529 5529 5528 5526 5524 5521 5518 5517 5517 5518 5520 5523 5527 5532 5540 5544 5553 5555 5568 5582 5597 5614 5631 5642 5648 5651 5659 5667 5675 5685 5695 5706 5712 5716 5720 5727 5731 5735 5738 5738
5560 5551 5544 5538 5535 5532 5530 5528 5526 5524 5521 5519 5517 5517 5517 5519 5520 5523 5529 5534 5541 5548 5554 5565 5577 5592 5607 5620 5631 5639 5647 5654 5661 5670 5679 5694 5701 5706 5712 5717 5721 5727 5732 5735 5736
5564 5557 5549 5542 5539 5535 5532 5529 5527 5525 5523 5520 5518 5517 5516 5517 5519 5520 5523 5529 5535 5542 5551 5559 5571 5586 5604 5613 5623 5631 5640 5649 5657 5664 5678 5687 5694 5700 5706 5713 5720 5724 5729 5731 5733
5567 5560 5554 5548 5542 5537 5533 5530 5526 5524 5522 5520 5518 5516 5514 5514 5514 5516 5519 5523 5532 5539 5546 5556 5566 5581 5597 5605 5616 5626 5638 5645 5652 5663 5673 5682 5692 5697 5702 5709 5717 5722 5726 5728 5730
Wind_Speed
26 28 28 29 30 32 35 43 45 45 44 54 61 57 57 55 62 56 44 40 47 54 54 50 47 48 41 47 47 45 49 43 38 36 35 35 38 37 38 41 39 34 37 39 39
28 29 30 31 33 33 34 36 40 47 48 47 49 52 56 56 54 65 58 55 54 58 59 55 54 58 51 47 50 47 50 44 37 39 41 40 42 43 39 43 37 36 37 42 44
29 30 32 33 34 36 38 38 38 43 43 45 47 49 50 48 49 52 59 60 63 66 60 58 61 60 54 49 53 54 56 43 42 40 46 45 42 41 39 40 30 42 42 43 49
32 33 35 36 38 39 41 42 44 43 43 45 45 47 48 49 52 53 55 61 64 65 64 64 61 55 50 52 44 58 55 48 41 43 48 45 44 37 46 38 33 45 48 48 50
31 32 35 37 40 43 45 46 47 47 48 50 52 52 53 53 51 54 52 51 55 60 64 65 62 55 53 47 47 53 51 52 52 52 47 47 42 41 41 35 43 50 50 55 56
35 37 39 40 43 44 46 47 49 52 53 54 54 54 53 52 52 54 53 50 54 57 64 66 66 60 58 55 52 51 56 55 54 54 47 46 44 46 34 39 49 53 55 58 57
43 44 45 47 48 49 51 53 54 55 55 56 58 59 57 52 54 52 57 55 54 59 59 66 68 67 63 59 58 58 59 60 58 49 46 45 48 47 39 42 51 54 54 58 46
49 50 51 53 54 55 57 58 58 59 61 62 63 61 59 59 57 56 56 55 54 55 56 62 70 69 68 63 63 63 64 66 57 50 48 48 47 45 39 44 53 53 49 46 33
54 56 57 59 62 63 64 66 67 67 67 68 67 67 64 65 62 61 58 57 56 56 57 56 60 67 70 69 68 69 68 63 54 50 51 51 47 41 40 48 52 37 43 31 20
54 57 59 63 65 68 70 71 70 71 72 74 73 72 71 71 71 65 63 62 58 58 59 61 62 62 63 67 62 57 55 55 54 56 56 53 44 43 39 46 45 34 33 24 22
59 61 65 68 70 73 75 77 79 80 80 79 79 81 77 80 78 75 70 67 64 61 60 58 61 57 58 58 62 64 64 62 59 59 56 49 46 46 40 34 38 35 28 24 22
65 69 73 76 79 82 84 86 86 85 83 81 82 83 81 84 84 83 81 73 68 66 63 62 59 43 46 60 59 60 63 64 64 59 55 53 49 46 27 33 31 30 25 21 18
73 77 79 79 77 76 74 68 67 69 82 68 68 75 73 80 86 88 88 81 72 69 68 67 49 44 45 48 51 53 58 56 56 55 52 51 48 41 26 29 27 27 24 20 19
78 74 68 60 56 55 53 53 53 54 60 53 53 55 65 73 79 86 88 86 80 71 67 64 54 56 52 49 48 47 44 46 47 55 48 47 50 46 25 29 25 22 22 19 21
64 58 52 49 45 47 48 48 47 47 45 41 45 44 47 57 70 76 83 82 78 73 69 63 61 59 54 46 37 34 37 38 45 54 47 42 52 26 23 24 20 20 20 22 19
52 47 44 45 46 44 43 42 40 38 37 33 36 30 32 40 50 57 69 76 72 66 63 61 58 54 48 46 36 33 35 34 37 39 50 39 49 25 15 16 19 18 22 22 21
44 43 44 44 43 42 39 35 33 35 28 30 31 30 28 28 34 39 57 62 72 71 65 63 63 57 52 48 42 42 39 39 39 40 42 40 42 9 7 7 12 22 28 20 24
41 40 40 40 37 30 28 30 29 27 24 28 28 23 21 18 20 32 45 54 62 67 63 65 65 61 54 48 41 36 36 40 39 38 42 23 39 19 15 18 17 23 21 22 20
35 35 38 34 23 21 19 17 18 18 21 22 21 27 22 25 21 26 36 50 59 66 68 65 65 57 53 47 42 35 42 30 31 35 32 29 29 18 16 18 18 19 15 23 17
33 36 34 30 18 15 16 12 9 12 18 19 18 25 25 31 22 30 32 42 60 68 68 65 66 60 54 50 47 42 28 34 39 38 35 27 28 16 16 18 23 11 19 22 19
36 36 33 23 10 6 12 13 18 17 11 15 18 17 27 32 35 27 27 35 50 65 64 63 66 64 59 55 52 50 47 47 41 38 35 29 26 13 15 20 20 15 22 22 19
37 36 27 22 9 5 6 11 16 21 21 12 11 18 25 28 33 26 45 27 39 61 65 66 65 60 57 54 50 48 43 38 37 37 34 31 21 15 19 25 17 20 20 17 15
37 37 30 17 11 11 7 14 17 19 18 14 11 8 14 20 29 28 33 31 37 53 66 67 67 59 57 57 55 51 47 47 47 44 41 36 25 19 21 25 20 24 22 17 12
39 35 30 19 14 7 10 13 14 14 16 13 10 7 10 17 21 32 29 45 36 42 55 67 65 64 58 51 49 52 54 49 47 45 42 33 20 19 21 26 24 25 22 15 10
41 41 33 26 19 12 8 11 14 12 13 12 11 7 4 9 16 21 32 40 33 46 49 65 65 63 57 56 51 49 50 50 48 43 39 26 20 24 26 28 27 25 21 14 9
36 38 38 28 22 18 13 11 11 9 11 13 9 10 7 6 11 12 34 32 35 40 49 60 64 63 54 55 55 49 46 47 46 41 30 26 30 30 32 27 26 26 21 13 11
33 36 37 29 28 25 21 19 16 12 12 11 7 7 8 7 8 12 21 35 37 38 47 55 63 63 57 56 55 55 44 45 45 35 33 35 32 32 30 29 27 26 19 16 11
Wind_Direction
264 260 256 253 251 250 247 243 242 244 246 244 242 246 248 247 231 235 230 244 243 245 248 242 248 252 266 250 248 242 247 246 252 254 256 259 270 276 281 285 292 301 297 298 301
267 268 265 261 258 249 247 249 246 245 244 242 239 241 246 245 242 239 237 239 242 241 245 249 253 261 259 249 247 246 250 250 258 267 262 263 266 276 273 278 292 295 289 291 295
274 273 271 270 269 265 261 253 249 248 248 246 246 244 243 241 240 239 238 245 250 247 248 253 258 259 262 256 251 247 254 253 254 269 262 262 264 270 270 273 293 288 286 284 287
273 272 270 269 268 269 268 266 262 255 249 247 246 246 247 247 246 246 245 245 245 253 256 256 258 255 256 260 259 252 257 257 253 260 261 262 263 270 273 281 289 286 283 281 282
272 271 272 273 272 271 269 267 264 261 258 253 251 249 249 250 247 253 249 247 246 247 251 254 255 257 257 263 260 248 250 258 254 258 268 265 269 275 272 288 290 286 282 282 282
280 277 274 272 270 269 267 267 267 265 262 261 259 257 253 253 250 251 252 248 244 243 243 247 251 252 253 252 252 251 253 257 258 259 269 271 272 274 285 288 280 283 281 280 284
285 282 280 278 275 272 269 267 264 263 263 263 262 260 260 257 250 246 252 253 252 242 242 243 244 248 251 253 251 252 255 258 259 265 266 273 270 276 289 286 287 284 283 281 284
290 287 283 280 277 275 272 268 266 264 262 260 259 259 260 258 252 249 246 249 250 243 239 241 240 243 248 251 250 252 255 257 262 264 265 269 269 276 287 285 288 291 288 287 277
289 287 284 282 280 278 276 274 273 270 264 261 259 258 256 256 253 248 247 245 246 243 237 237 238 240 244 248 250 252 254 258 262 259 264 268 277 284 286 286 286 286 281 288 273
287 285 284 282 280 278 277 275 273 270 268 265 263 258 256 254 252 249 248 246 240 241 241 238 238 237 240 243 254 259 258 257 260 263 265 271 278 281 282 282 279 273 277 269 258
292 291 290 288 286 284 282 279 276 273 269 266 264 260 255 251 250 248 244 243 241 238 241 242 240 245 249 252 252 253 256 257 261 262 265 271 272 273 279 267 270 263 267 258 270
299 296 293 291 288 286 283 282 279 274 270 270 266 260 255 249 247 246 245 240 239 241 235 235 244 253 253 247 251 253 255 255 259 262 268 269 264 270 254 257 263 253 261 257 276
302 300 297 295 293 289 286 284 282 279 273 270 267 264 255 248 244 240 241 242 237 235 236 240 251 251 251 245 250 254 256 258 260 263 263 264 262 248 244 250 251 246 253 259 283
306 305 301 297 295 292 291 288 282 277 275 274 266 257 254 246 240 235 236 239 237 233 233 237 238 237 237 239 241 250 253 249 252 258 259 265 257 243 235 242 244 240 243 260 268
310 304 302 301 298 296 293 287 282 278 279 271 264 260 254 251 242 232 229 230 234 235 229 234 236 236 234 243 247 260 256 249 247 252 256 256 250 234 227 233 241 240 243 265 259
307 306 306 304 302 298 294 287 281 274 270 263 264 264 263 256 247 233 228 224 224 226 226 225 230 233 238 232 235 247 241 235 239 246 250 234 241 240 213 236 241 235 247 258 241
310 312 311 307 302 297 292 286 280 266 269 262 261 265 266 257 255 235 224 219 217 216 217 219 223 225 223 223 223 228 221 223 227 232 235 235 238 173 182 261 243 240 244 240 236
319 321 321 318 310 301 290 279 274 266 258 260 258 254 255 235 240 242 220 215 213 209 205 213 217 222 222 225 226 234 233 224 220 225 232 229 236 202 251 259 246 237 245 226 232
332 336 338 333 329 328 324 291 271 261 265 263 256 245 242 217 210 210 215 206 206 200 201 207 214 218 218 223 222 220 222 216 218 218 227 225 236 221 238 262 259 246 236 228 235
340 339 339 335 331 0 4 5 322 277 273 275 263 238 231 215 201 181 205 208 205 201 198 201 208 211 213 214 213 216 218 216 217 223 233 224 233 231 242 247 255 228 208 224 243
346 338 339 347 324 16 25 25 24 16 320 270 256 245 234 236 228 188 165 192 211 201 197 196 203 208 208 211 215 215 208 211 217 226 234 230 229 241 242 228 232 219 228 231 241
350 346 339 345 319 295 347 357 17 13 11 357 266 240 226 237 242 207 196 166 202 201 197 196 200 205 208 210 212 215 221 227 231 234 240 250 247 254 214 220 212 227 225 226 226
357 356 349 347 359 11 334 337 349 350 4 1 356 250 240 237 237 235 186 191 184 205 199 196 200 200 199 206 208 211 217 219 224 233 234 242 240 237 196 219 214 218 227 223 223
13 8 18 28 30 13 12 4 357 344 348 345 340 354 257 253 242 227 190 191 193 195 209 198 200 200 202 204 210 212 214 218 226 230 231 233 222 209 192 203 203 218 230 226 215
14 17 16 24 21 37 17 344 339 349 352 359 356 325 302 262 254 251 212 188 192 197 209 201 200 202 202 202 207 212 215 218 223 228 229 220 194 196 190 198 207 213 221 218 210
8 12 18 13 13 15 13 1 353 16 18 5 359 354 335 270 252 238 237 201 187 187 207 205 202 200 200 203 205 211 213 215 216 222 210 191 177 192 191 194 200 198 206 215 206
3 3 7 12 15 9 354 340 338 326 326 356 353 334 318 302 250 240 241 225 189 184 202 209 202 199 198 203 204 211 212 213 215 205 190 176 173 191 187 191 198 190 201 221 212